sat.trackr.live / text

‹ back to catalog

STARLINK-2752

NORAD 48692 · 2021-044BG

PAYLOAD ACTIVE UNKNOWN

§ Identity

Operator
Country
US
Launch date
2021-05-26
Launch site
AFETR
Launch vehicle
Mass (kg)
RCS (m²)

Purposes: comms

External: N2YO · Heavens-Above · Gunter

§ Orbital elements

Epoch: 2026-05-25T04:40:13.966176Z

Period
94.01 min
Inclination
53.1612°
Eccentricity
0.0001378
Mean motion
15.31692365 rev/d
Perigee alt
469.8 km
Apogee alt
471.7 km
Semi-major
6,848.9 km
B*
-1.1295e-5
RAAN
79.2695°
Arg perigee
87.1953°
Mean anomaly
272.9206°
Rev number
27,608

§ Raw data

STARLINK-27521 48692U 21044BG  26145.19460609 -.00000716  00000+0 -11295-4 0  99902 48692  53.1612  79.2695 0001378  87.1953 272.9206 15.31692365276081

JSON: /api/v1/satellites/48692 · /tle

For live sub-satellite position, see the globe view (requires WebGL).

§ Visibility from observer

Set your observer location to see the next 7 days of passes ≥ 10°. The values pass through the URL so the page stays shareable.

No JS? Fill the form by hand. The geolocation button needs JavaScript.